GPS BIIF-9

Last updated on Sat Aug 15 2026 00:02:48 GMT+0000 (Coordinated Universal Time)

1 40534U 15013A 26225.89759889 .00000014 00000+0 00000+0 0 9999 2 40534 53.1629 201.7917 0111253 40.4551 320.3306 2.00572576 82981
UTC large
Height (km)
Speed (km/s)
/
Latitude / Longitude
Inclination (degrees)
Orbital Period (minutes)
Azimuth
Elevation
Range (km)
Doppler Factor

Next 0 passes for location: London (51.5072 / 0.1276)

No passes found over London.
GPS BIIF-9